Alexandria, LA

6:17 PM CST on February 19, 2018 (GMT -0600)
Alexandria International

Weather History for KAEX - February, 2008

Change the Weather History Date:

Saturday, February 9, 2008

  Actual Average Record
Temperature  
Mean Temperature 57 °F 51 °F  
Max Temperature 73 °F 62 °F 84 °F (1957)
Min Temperature 41 °F 40 °F 15 °F (1933)
Degree Days  
Heating Degree Days 8 15  
Month to date heating degree days 83 137  
Since 1 July heating degree days 1177 1428  
Growing Degree Days 8 (Base 50)    
Moisture  
Dew Point 39 °F    
Average Humidity 53    
Maximum Humidity 89    
Minimum Humidity 24    
Precipitation  
Precipitation 0.00 in 0.15 in 2.79 in (1980)
Month to date precipitation 1.74 1.38  
Year to date precipitation 6.93 6.60  
Snow  
Snow 0.00 in - T in (1973)
Month to date snowfall 0.0  
Since 1 July snowfall T  
Snow Depth 0.00 in    
Sea Level Pressure  
Sea Level Pressure 30.12 in    
Wind  
Wind Speed 5 mph (NE)    
Max Wind Speed 15 mph    
Max Gust Speed 24 mph    
Visibility 10 miles    
Events      
T = Trace of Precipitation, MM = Missing Value Source: NWS Daily Summary

Daily Weather History Graph

Daily Weather History Graph

Search for Another Location

Airport or City:

Trip Planner

Search our weather history database for the weather conditions in past years. The results will help you decide how hot, cold, wet, or windy it might be!

Date:

Astronomy

Feb. 09, 2008 Rise Set
Actual Time 6:57 AM CST 5:51 PM CST
Civil Twilight 6:32 AM CST 6:17 PM CST
Nautical Twilight 6:03 AM CST 6:45 PM CST
Astronomical Twilight 5:35 AM CST 7:14 PM CST
Moon 8:22 AM CST (2/9) 8:44 PM CST (2/9)
Length of Visible Light 11h 44m
Length of Day
10h 54m
Waxing Crescent, 8% of the Moon is Illuminated
Feb 9
Waxing Crescent
Feb 13
First Quarter
Feb 20
Full
Feb 28
Last Quarter
Mar 7
New

Hourly Weather History & Observations

Time (CST) Temp. Windchill Dew Point Humidity Pressure Visibility Wind Dir Wind Speed Gust Speed Precip Events Conditions
12:42 AM 59.0 °F - 53.6 °F 82% 30.00 in 10.0 mi NW 15.0 mph 24.2 mph N/A   Mostly Cloudy
12:53 AM 59.0 °F - 54.0 °F 83% 30.02 in 10.0 mi WNW 6.9 mph - N/A   Overcast
1:28 AM 59.0 °F - 53.6 °F 82% 30.02 in 10.0 mi Calm Calm - N/A   Overcast
1:41 AM 57.2 °F - 53.6 °F 88% 30.02 in 10.0 mi Calm Calm - N/A   Mostly Cloudy
1:53 AM 57.0 °F - 53.1 °F 87% 30.04 in 9.0 mi Calm Calm - N/A   Partly Cloudy
2:53 AM 53.1 °F - 50.0 °F 89% 30.05 in 9.0 mi NNW 3.5 mph - N/A   Clear
3:53 AM 54.0 °F - 37.0 °F 53% 30.05 in 10.0 mi North 4.6 mph - N/A   Clear
4:53 AM 48.9 °F - 36.0 °F 61% 30.04 in 10.0 mi Calm Calm - N/A   Clear
5:53 AM 45.0 °F - 39.0 °F 80% 30.06 in 10.0 mi Calm Calm - N/A   Clear
6:53 AM 43.0 °F 41.3 °F 36.0 °F 76% 30.08 in 10.0 mi SSE 3.5 mph - N/A   Clear
7:53 AM 46.0 °F - 39.9 °F 79% 30.11 in 10.0 mi Calm Calm - N/A   Clear
8:53 AM 55.0 °F - 37.9 °F 53% 30.13 in 10.0 mi East 4.6 mph - N/A   Clear
9:53 AM 57.9 °F - 37.0 °F 46% 30.14 in 10.0 mi ESE 5.8 mph - N/A   Clear
10:53 AM 62.1 °F - 36.0 °F 38% 30.16 in 10.0 mi East 3.5 mph - N/A   Clear
11:53 AM 64.9 °F - 36.0 °F 34% 30.16 in 10.0 mi Calm Calm - N/A   Partly Cloudy
12:53 PM 70.0 °F - 36.0 °F 29% 30.14 in 10.0 mi Calm Calm - N/A   Clear
1:53 PM 71.1 °F - 34.0 °F 26% 30.12 in 10.0 mi Variable 3.5 mph - N/A   Clear
2:53 PM 72.0 °F - 33.1 °F 24% 30.11 in 10.0 mi Calm Calm - N/A   Clear
3:53 PM 72.0 °F - 35.1 °F 26% 30.12 in 10.0 mi Calm Calm - N/A   Overcast
4:53 PM 71.1 °F - 36.0 °F 28% 30.13 in 10.0 mi Calm Calm - N/A   Overcast
5:53 PM 68.0 °F - 30.0 °F 24% 30.14 in 10.0 mi ENE 4.6 mph - N/A   Scattered Clouds
6:53 PM 64.0 °F - 30.9 °F 29% 30.17 in 10.0 mi ENE 4.6 mph - N/A   Clear
7:53 PM 61.0 °F - 30.0 °F 31% 30.20 in 10.0 mi NE 4.6 mph - N/A   Clear
8:53 PM 57.9 °F - 30.0 °F 35% 30.22 in 10.0 mi NE 4.6 mph - N/A   Clear
9:53 PM 55.9 °F - 30.0 °F 37% 30.24 in 10.0 mi NE 4.6 mph - N/A   Clear
10:53 PM 55.9 °F - 28.0 °F 34% 30.25 in 10.0 mi East 4.6 mph - N/A   Clear
11:53 PM 46.9 °F - 36.0 °F 66% 30.27 in 10.0 mi Calm Calm - N/A   Clear